Home   Weather   Tau   Past weeks

Flag for Norway Past Weather in Tau, Norway — Yesterday and Last 2 Weeks

Now
34 °F

Mostly cloudy.


Feels Like: 30 °F
Forecast: 35 / 39 °F
Wind: 5 mph from Southeast

Location: Stavanger / Sola

Current Time: Jan 24, 2017 at 4:34:13 am

Latest Report: Jan 24, 2017 at 3:50 am


Visibility: N/A

Pressure: 30.15 "Hg

Humidity: 100%

Dew Point: 34 °F

Location of TauLocation

Past Weather in Tau — Graph

°F

Tau Temperature Yesterday

Maximum temperature yesterday: 43 °F (at 1:50 pm)
Minimum temperature yesterday: 37 °F (at 12:50 am)
Average temperature yesterday: 39 °F

High & Low Weather Summary for the Past Weeks

 TemperatureHumidityPressure
High45 °F (Jan 9, 12:50 pm)100% (Jan 9, 6:50 am)30.48 "Hg (Jan 9, 6:50 am)
Low16 °F (Jan 16, 4:50 am)47% (Jan 16, 1:50 pm)28.53 "Hg (Jan 11, 9:20 am)
Average38 °F87%29.93 "Hg
* Reported Jan 9 2:50 am — Jan 24 2:50 am, Tau, Weather by CustomWeather, © 2017

Note: Actual official high and low records may vary slightly from our data, if they occured in-between our weather recording intervals... More about our weather records

Advertising

Tau Weather History for the Previous 24 Hours

Scroll right to see more
 ConditionsComfort  
Time TempWeatherWind HumidityBarometerVisibility
2:50 am
Tue, Jan 24
34 °FOvercast.2 mph100%30.15 "Hg6 mi
1:50 am34 °FMostly cloudy.5 mph100%30.15 "HgN/A
12:50 am36 °FPassing clouds.6 mph93%30.15 "Hg5 mi
11:50 pm
Mon, Jan 23
37 °FPartly cloudy.2 mph93%30.15 "Hg6 mi
11:20 pm37 °FPassing clouds.No wind93%30.15 "HgN/A
10:50 pm37 °FPassing clouds.2 mph93%30.15 "HgN/A
10:20 pm39 °FMostly cloudy.No wind93%30.15 "HgN/A
9:50 pm39 °FPassing clouds.No wind93%30.15 "HgN/A
9:20 pm39 °FPartly cloudy.5 mph93%30.15 "HgN/A
8:50 pm41 °FPartly cloudy.8 mph87%30.15 "HgN/A
8:20 pm39 °FPassing clouds.1 mph93%30.15 "HgN/A
7:50 pm39 °FPassing clouds.No wind93%30.12 "HgN/A
7:20 pm39 °FPassing clouds.2 mph93%30.12 "HgN/A
6:50 pm39 °FPartly cloudy.No wind93%30.12 "HgN/A
6:20 pm41 °FPartly cloudy.No wind87%30.12 "HgN/A
5:50 pm41 °FPassing clouds.1 mph87%30.12 "HgN/A
5:20 pm41 °FPartly cloudy.1 mph87%30.12 "HgN/A
4:50 pm41 °FPartly cloudy.2 mph87%30.12 "HgN/A
4:20 pm41 °FBroken clouds.2 mph87%30.12 "HgN/A
3:50 pm41 °FBroken clouds.5 mph87%30.12 "HgN/A
3:20 pm41 °FBroken clouds.3 mph87%30.12 "HgN/A
2:50 pm41 °FBroken clouds.6 mph87%30.15 "HgN/A
2:20 pm43 °FScattered clouds.5 mph81%30.15 "HgN/A
1:50 pm43 °FScattered clouds.7 mph81%30.15 "HgN/A
1:20 pm41 °FBroken clouds.8 mph87%30.15 "HgN/A
12:50 pm41 °FPartly sunny.9 mph87%30.15 "HgN/A
12:20 pm41 °FBroken clouds.5 mph93%30.15 "HgN/A
11:50 am39 °FBroken clouds.3 mph93%30.15 "HgN/A
11:20 am39 °FBroken clouds.3 mph93%30.15 "HgN/A
10:50 am37 °FScattered showers. Broken clouds.No wind93%30.15 "HgN/A
10:20 am37 °FLight rain. Broken clouds.3 mph93%30.15 "HgN/A
9:50 am37 °FBroken clouds.6 mph93%30.15 "HgN/A
9:20 am37 °FBroken clouds.2 mph93%30.15 "HgN/A
8:50 am37 °FLight rain. Passing clouds.No wind93%30.15 "HgN/A
8:20 am37 °FPassing clouds.3 mph93%30.12 "HgN/A
7:50 am37 °FPassing clouds.2 mph93%30.12 "HgN/A
7:20 am39 °FPartly cloudy.No wind87%30.12 "HgN/A
6:50 am37 °FPartly cloudy.5 mph87%30.12 "HgN/A
6:20 am37 °FPartly cloudy.3 mph93%30.12 "HgN/A
5:50 am37 °FPartly cloudy.5 mph93%30.12 "HgN/A
Weather by CustomWeather, © 2017

See weather overviewHow to use our weather pages